Starlink 1624

operational
NORAD ID: 46130 Int'l Des: 2020-057 Owner: SPXS Country: US Constellation: starlink
LEOCIRCULARSTARLINK_TYPE

Über Starlink 1624

Beschreibung wird geladen...

Live-Position

3D-Globus wird geladen...

Nächste Überflüge

Höhenverlauf

Altitude vs Time

uPlot chart will show altitude changes over time

Zweizeiliger Elementsatz

1 46130U 20057P 25305.66668981 .00081922 00000-0 21351-2 0 9999
2 46130 53.0554 128.5564 0001360 164.3719 348.7599 15.38163652 5752
Epoch: 1. Nov. 2025 • Age: 16 hours

Aktueller Status

Höhe 453.1 km
Geschwindigkeit 7.64 km/s
Subsatellitenpunkt -0.71°S, 44.39°W
Startdatum 18. Aug. 2020
Alter 5.2 years
Typ internet

Technische Details

Klassifizierung Payload
Masse 260.00 kg
Trockenmasse 248.00 kg
Gesamtmasse 260.00 kg
Länge 0.20 m
Durchmesser 2.80 m
Spannweite 9.00 m
Form Box + pan
Hersteller SPXS
Bus-Typ Starlink
Phasenstatus In Orbit
Besitzer/Staat SPXS/US

Große Konstellationen

Loading constellations...